Temperature
17 17 17 17 17 17 17 17 17 17 17 17 17 17 17 17 18 18 18 18 18 18 17 17 17 18 18 18 18 18 18 18 18 18 18 18 18 18 18 18 18 18 18
17 17 17 17 17 17 17 17 17 17 17 17 17 17 17 17 17 18 17 17 17 17 17 17 17 17 18 18 18 18 18 18 18 18 18 18 18 18 18 18 18 18 18
17 17 17 17 17 17 17 17 17 17 17 17 17 17 17 17 17 17 17 17 17 17 17 17 17 17 17 17 18 18 18 18 18 18 18 17 18 18 18 18 18 18 18
17 17 17 17 17 17 16 17 17 17 17 17 17 17 17 17 17 17 17 17 17 17 17 17 17 17 17 17 17 17 17 17 17 17 17 17 17 18 18 18 18 18 18
17 17 17 17 17 17 16 16 16 17 17 17 17 17 17 17 17 17 17 17 17 17 17 17 17 17 17 17 17 17 17 17 17 17 17 17 17 18 18 18 18 18 18
17 17 17 17 17 17 16 16 16 17 17 17 17 17 17 17 17 17 17 17 17 17 17 17 17 17 17 17 17 17 17 17 17 17 17 17 17 17 17 18 18 18 17
17 17 17 17 17 17 17 16 17 17 17 17 17 17 17 17 17 17 17 17 17 17 17 17 17 17 17 17 17 17 17 17 17 17 17 17 17 17 17 17 17 17 17
17 17 17 17 17 17 17 17 17 17 17 17 17 17 16 17 17 17 17 17 17 17 17 17 17 17 17 17 17 17 17 17 17 17 17 17 17 17 17 17 17 17 17
17 17 17 17 17 17 17 17 17 16 16 16 16 16 16 16 17 17 17 17 17 17 17 17 17 17 17 17 17 17 17 17 17 17 17 17 17 17 17 17 17 17 17
18 17 17 17 17 17 17 17 17 16 16 16 16 16 16 16 16 16 16 16 17 17 17 17 17 17 17 16 16 16 16 16 16 16 16 16 17 16 17 17 17 17 17
18 18 17 17 17 17 17 17 17 16 16 16 16 16 16 16 16 16 16 16 16 16 16 16 16 16 16 16 16 16 16 16 16 16 16 16 16 16 16 16 16 16 16
18 18 18 18 17 17 17 17 17 16 16 16 16 16 16 16 16 16 16 16 16 16 16 16 16 16 16 16 16 16 16 16 16 16 16 16 16 16 16 16 16 16 16
18 18 18 18 17 17 17 17 17 17 16 16 16 16 16 16 16 16 16 16 16 16 16 16 16 16 16 16 16 16 16 16 15 15 15 16 16 16 16 16 16 16 16
18 18 18 18 17 17 17 17 17 17 16 16 16 16 16 16 16 16 16 16 16 16 16 16 16 16 16 16 16 16 16 15 15 15 15 15 15 15 15 15 15 16 16
18 18 18 18 18 17 17 17 17 17 16 16 16 16 16 16 16 16 16 16 16 16 16 16 16 16 16 16 15 15 15 15 15 15 15 15 15 15 15 15 15 15 15
19 18 18 18 17 17 17 17 17 16 16 16 16 16 16 16 16 16 16 16 16 16 16 16 16 16 16 15 15 15 15 15 15 15 15 15 15 15 15 15 15 15 15
19 18 18 18 17 17 17 17 17 16 16 16 16 16 16 16 16 16 16 16 16 16 15 15 15 15 15 15 15 15 15 15 15 15 15 15 15 15 14 14 14 14 15
19 18 18 18 17 17 17 17 16 16 16 16 16 16 16 16 16 16 16 16 15 15 15 15 15 15 15 15 15 15 15 15 15 15 15 15 15 14 14 14 14 14 14
19 18 18 17 17 17 17 17 16 16 16 16 16 16 16 16 16 16 16 16 16 15 15 15 15 15 15 15 15 15 15 15 14 14 14 14 14 14 14 14 14 14 14
19 18 18 17 17 17 17 16 16 16 16 16 16 16 16 16 16 16 16 15 15 15 15 15 15 15 15 15 15 15 15 14 14 14 14 14 14 14 14 14 14 14 14
18 18 18 18 17 17 16 16 16 16 16 16 15 15 16 16 15 15 15 15 15 15 15 15 15 15 15 15 15 15 15 15 15 14 14 14 14 14 14 13 13 13 13
18 18 18 17 17 17 16 16 16 16 16 16 15 15 15 15 15 15 15 15 15 15 15 15 15 15 15 15 15 15 14 14 14 14 14 14 14 13 13 13 13 13 13
18 18 18 17 17 16 16 16 16 16 16 16 15 15 15 15 15 15 15 15 15 15 15 15 15 15 15 15 15 15 15 14 14 14 14 14 14 13 13 13 13 13 13
18 18 17 17 17 16 16 16 16 16 16 15 15 15 15 15 15 15 15 15 15 15 15 15 15 15 15 15 15 15 15 15 14 14 14 14 13 13 13 13 13 13 13
18 18 17 17 17 16 16 16 16 16 15 15 15 15 15 15 15 15 15 15 15 15 15 15 15 15 14 14 14 15 15 15 15 14 13 13 13 13 13 13 13 13 13
18 17 17 17 16 16 16 16 16 15 15 15 15 15 15 15 15 15 15 15 15 15 15 15 15 15 14 14 14 14 14 14 14 14 14 13 13 13 13 13 13 13 13
Wind_Speed
6 11 11 10 10 10 10 11 11 11 11 11 11 12 12 11 10 11 10 10 9 9 9 9 9 9 9 9 9 9 9 10 10 9 9 9 8 8 7 7 7 8 8
8 11 11 10 10 10 10 10 10 10 10 11 11 12 12 12 11 12 11 10 10 10 9 9 9 9 10 10 9 9 9 9 9 8 8 8 8 8 8 9 9 8 8
8 11 11 10 9 9 9 9 9 10 10 10 11 11 12 12 12 11 11 10 10 9 9 9 10 9 9 9 9 9 9 7 7 6 6 6 7 8 9 9 9 8 8
9 11 11 9 9 9 9 9 10 10 10 10 10 11 11 11 11 11 10 10 10 10 9 10 10 9 9 9 9 9 8 7 7 6 6 7 9 10 10 9 9 9 9
10 12 10 9 9 9 9 9 9 10 10 10 10 10 11 11 10 10 10 10 10 10 10 10 10 9 9 9 9 8 7 7 7 7 8 10 10 10 10 10 9 9 9
9 11 10 9 9 9 9 9 10 10 10 10 10 10 10 10 10 10 10 10 10 10 11 11 10 10 10 9 8 8 7 7 7 8 9 10 10 11 11 10 10 9 8
8 10 11 9 8 9 9 9 9 9 9 9 9 9 9 10 10 10 10 10 10 10 11 11 10 10 10 9 8 7 7 7 7 8 10 11 11 11 11 11 10 9 9
6 8 10 10 9 9 9 9 9 9 9 9 9 8 8 9 9 10 10 10 10 11 11 11 10 10 10 9 9 8 8 8 8 10 11 10 11 11 11 10 10 9 9
5 6 8 10 9 9 9 8 8 8 8 8 8 8 8 9 9 10 11 11 11 11 11 10 10 10 9 8 8 8 9 10 9 9 10 10 11 11 11 10 10 9 9
5 5 5 6 8 10 9 8 7 7 7 6 6 6 7 8 9 9 10 10 10 10 10 10 10 10 9 7 7 7 8 8 10 11 10 10 12 11 11 10 10 9 9
6 4 4 5 6 6 8 8 7 7 6 5 5 5 5 6 8 9 10 10 10 10 9 8 8 8 7 5 5 6 7 7 11 10 10 11 11 11 11 10 10 9 8
5 4 4 5 5 6 7 6 5 5 4 3 3 4 4 6 9 10 10 9 9 8 7 5 4 4 4 3 4 5 6 9 9 9 10 12 11 11 10 10 10 9 9
5 4 5 4 5 5 4 5 4 4 3 4 4 5 5 6 7 8 7 6 6 6 4 4 3 3 5 5 5 6 7 8 9 9 10 12 11 11 10 10 10 9 9
5 5 4 4 5 5 5 3 3 3 3 4 5 6 5 3 4 4 4 5 5 5 5 4 5 7 7 7 7 7 8 8 8 10 10 12 11 11 11 10 10 10 9
6 5 5 5 5 4 4 2 4 3 4 5 4 5 6 4 3 4 4 4 5 6 5 4 5 6 6 8 8 9 8 9 9 10 9 11 11 11 11 11 11 11 10
6 6 5 4 5 5 4 3 3 4 4 5 4 5 7 5 3 4 4 4 5 6 5 5 6 5 5 6 6 8 8 8 8 9 9 10 11 11 11 11 11 11 11
5 7 6 4 5 5 4 3 3 4 5 4 5 6 6 6 6 5 4 3 4 6 7 7 6 5 4 4 5 6 6 7 7 8 8 8 9 9 10 10 11 12 12
5 7 6 5 5 5 4 3 3 5 5 5 5 6 6 7 8 6 3 2 5 6 5 3 3 4 4 4 4 3 4 5 5 6 7 7 8 8 8 10 11 11 11
6 6 6 5 5 5 4 3 3 4 4 4 5 5 5 5 6 6 3 3 5 4 3 3 4 3 3 3 3 3 3 3 4 7 6 7 8 9 9 10 11 11 12
5 6 6 4 5 5 3 3 3 3 3 4 4 3 4 5 5 5 3 3 5 3 3 3 3 2 2 2 3 4 3 2 3 4 5 6 7 8 9 9 9 10 11
5 5 5 4 5 4 3 2 2 2 2 2 2 3 4 4 4 3 3 3 3 2 3 3 3 2 2 2 3 2 3 3 3 2 3 4 6 7 8 9 8 8 9
5 4 5 4 5 4 2 2 2 2 2 2 2 4 4 4 3 2 2 2 2 2 2 2 3 1 1 1 1 1 1 3 3 2 2 3 4 6 7 7 8 9 9
5 5 4 4 5 4 4 2 2 2 2 2 2 2 3 4 4 3 3 2 2 2 2 2 2 2 0 1 1 1 1 1 1 2 2 3 3 3 4 5 8 9 9
5 5 5 4 4 4 4 3 2 2 1 1 1 1 1 2 2 2 2 3 2 1 2 2 2 2 1 1 1 1 1 2 2 1 2 2 3 4 3 4 7 8 9
6 5 4 4 4 3 3 3 1 1 1 1 2 2 1 1 1 1 2 2 1 1 1 1 2 1 1 0 0 0 1 0 1 2 0 1 2 2 3 4 5 6 8
6 5 4 4 4 3 3 3 3 2 1 1 1 2 1 1 0 1 1 1 1 1 1 2 1 1 0 1 1 0 0 0 0 1 1 1 1 1 2 3 4 5 7
Wind_Direction
78 82 68 56 50 48 47 46 47 50 51 51 53 53 53 54 55 59 60 61 61 66 66 64 63 61 63 62 62 67 73 79 87 91 89 86 81 82 79 74 80 83 84
87 91 74 59 53 50 49 48 50 53 53 55 57 57 56 54 56 59 60 63 66 69 70 66 64 63 64 62 62 66 73 77 82 90 93 88 84 85 80 75 77 84 84
86 94 78 61 56 53 54 54 54 56 59 61 62 60 59 59 59 62 64 65 67 69 69 67 65 63 64 63 62 64 70 72 74 79 85 93 87 85 83 81 82 84 85
79 82 75 67 61 58 58 58 58 60 63 63 64 62 60 62 63 65 66 69 71 71 69 68 67 66 66 64 62 60 60 62 62 64 67 77 79 85 86 84 81 79 81
81 85 84 77 69 64 62 64 66 64 64 63 62 60 60 63 67 67 68 71 74 77 74 72 70 72 71 68 66 59 58 57 55 55 64 70 71 81 83 80 79 79 81
92 95 97 88 79 72 70 68 67 66 66 66 64 62 63 65 66 68 73 77 79 83 81 78 76 73 73 70 65 57 53 47 54 62 69 72 75 78 79 78 78 79 80
96 101 107 104 93 83 77 74 71 68 68 68 69 68 66 68 69 70 76 82 84 86 86 82 79 72 66 63 60 53 47 37 69 69 69 72 76 79 79 79 79 79 77
92 110 115 118 111 100 88 81 79 78 75 73 75 74 74 77 76 74 77 81 84 86 87 86 82 76 69 63 59 53 44 41 68 76 72 72 80 81 80 77 77 76 74
86 101 122 135 127 118 105 99 95 93 89 87 86 86 86 86 84 83 84 88 88 88 87 87 85 83 80 73 67 58 46 36 58 67 70 71 77 78 78 77 75 75 75
79 82 95 112 126 133 128 118 114 113 114 110 105 107 108 105 97 95 93 93 93 92 93 92 92 91 86 78 70 60 48 37 64 62 65 74 77 76 77 77 75 73 74
75 69 77 88 90 99 116 124 137 141 146 143 144 151 143 125 115 107 102 104 103 100 99 99 103 103 96 82 68 66 52 63 71 66 61 72 75 74 74 75 74 73 72
91 87 86 81 83 76 79 97 103 109 123 124 117 126 131 109 98 107 112 114 117 116 113 118 123 114 106 86 70 75 62 69 74 72 63 70 71 69 70 70 69 68 70
94 79 87 82 82 82 79 83 76 80 83 70 65 75 79 98 112 119 131 130 129 127 112 107 103 90 85 81 72 78 74 73 75 71 65 67 68 66 66 68 67 65 67
100 82 82 87 86 83 82 83 87 73 66 62 46 69 66 60 76 90 97 103 104 96 82 70 72 69 63 65 64 68 70 74 79 79 69 70 67 66 66 66 64 64 66
112 101 75 72 75 81 76 70 82 71 68 73 43 63 79 69 66 81 87 93 90 87 84 69 68 64 56 54 54 62 63 67 73 82 78 75 71 67 66 67 68 67 67
116 105 96 87 86 80 77 68 81 82 79 77 55 51 76 78 75 77 74 83 85 87 84 81 75 69 65 64 55 56 60 64 73 85 89 80 76 73 68 66 68 68 71
114 105 89 79 78 77 75 71 79 76 68 61 48 40 59 78 75 74 57 65 81 84 77 74 66 64 70 71 68 64 62 64 67 72 86 92 86 79 75 70 71 70 71
106 101 94 83 77 68 60 56 73 84 73 63 52 40 42 64 74 79 71 61 85 84 82 76 70 59 53 52 53 56 64 69 65 71 76 89 95 88 81 76 74 71 71
109 107 103 89 89 82 70 57 50 80 80 76 62 45 38 61 78 81 75 80 79 80 73 73 73 71 66 59 58 63 59 63 49 62 62 74 92 98 95 84 78 72 70
107 108 106 102 88 85 65 58 52 55 68 70 72 61 45 51 70 88 96 89 87 80 79 80 89 78 85 67 65 63 67 70 61 54 56 61 72 89 101 100 89 77 71
121 116 116 116 102 92 75 69 71 64 76 69 66 63 59 57 69 86 85 84 89 94 103 99 93 72 70 82 77 59 44 60 81 66 63 59 56 68 86 96 99 95 81
127 127 120 110 107 108 106 95 99 92 94 89 62 56 49 52 44 82 98 90 103 100 93 93 94 68 37 75 104 90 57 20 27 57 76 80 66 66 70 78 87 95 97
138 135 132 127 121 118 109 83 72 60 57 69 69 53 41 50 48 47 77 96 113 127 128 125 116 113 354 328 75 111 117 123 7 6 60 77 78 75 72 75 74 82 95
143 142 136 128 122 119 116 107 109 111 108 107 119 112 85 62 56 45 79 102 110 117 139 170 143 152 163 284 330 1 106 138 138 34 7 51 70 77 71 74 75 75 89
135 133 131 131 120 117 130 138 130 99 128 108 111 113 108 76 60 47 80 96 117 125 136 119 87 88 138 168 240 357 14 254 165 152 155 358 40 65 78 78 86 85 87
123 131 140 134 123 133 150 148 148 149 141 120 130 140 155 144 122 61 89 96 128 130 128 122 123 107 76 31 19 46 172 182 162 136 164 177 116 81 88 86 94 100 96
Height
1528 1526 1525 1525 1524 1523 1523 1523 1522 1522 1522 1521 1521 1521 1521 1521 1521 1521 1521 1522 1522 1523 1523 1524 1524 1525 1525 1525 1526 1526 1526 1526 1527 1528 1530 1530 1531 1532 1533 1534 1534 1535 1536
1529 1527 1526 1525 1525 1524 1524 1524 1523 1523 1523 1523 1523 1522 1522 1522 1522 1522 1522 1523 1523 1523 1524 1524 1525 1526 1526 1526 1527 1527 1528 1528 1529 1530 1531 1531 1532 1533 1534 1534 1535 1535 1536
1530 1528 1527 1526 1526 1525 1525 1525 1524 1524 1524 1524 1524 1524 1523 1523 1523 1523 1523 1524 1524 1524 1525 1525 1526 1527 1527 1528 1528 1529 1529 1530 1530 1531 1532 1532 1533 1534 1534 1535 1536 1536 1537
1531 1529 1528 1527 1527 1526 1526 1525 1525 1525 1525 1525 1525 1525 1525 1525 1525 1524 1525 1525 1525 1525 1526 1526 1527 1527 1528 1529 1529 1530 1531 1532 1532 1532 1533 1534 1534 1535 1535 1536 1536 1537 1538
1531 1530 1529 1529 1528 1527 1527 1527 1526 1526 1526 1526 1526 1526 1526 1526 1526 1526 1526 1526 1526 1527 1527 1527 1528 1528 1529 1530 1530 1531 1532 1533 1534 1534 1534 1535 1535 1535 1536 1536 1537 1538 1538
1532 1531 1530 1530 1529 1529 1528 1528 1528 1527 1527 1527 1527 1527 1527 1527 1527 1527 1527 1527 1527 1528 1528 1529 1529 1530 1530 1531 1532 1532 1534 1534 1535 1535 1536 1536 1536 1537 1537 1537 1538 1539 1539
1534 1533 1532 1531 1531 1530 1530 1529 1529 1529 1529 1529 1529 1529 1529 1529 1528 1528 1528 1528 1529 1529 1529 1530 1530 1531 1532 1532 1533 1534 1535 1535 1536 1536 1536 1537 1537 1537 1538 1538 1539 1539 1540
1535 1534 1533 1533 1532 1532 1531 1531 1530 1530 1530 1530 1530 1530 1530 1530 1530 1530 1530 1530 1530 1531 1531 1531 1532 1533 1533 1534 1534 1535 1536 1537 1537 1537 1537 1537 1538 1538 1539 1539 1540 1540 1540
1536 1535 1535 1534 1534 1533 1533 1533 1533 1532 1532 1532 1532 1532 1532 1532 1532 1532 1531 1532 1532 1532 1533 1533 1534 1535 1535 1536 1536 1537 1538 1538 1539 1539 1539 1539 1539 1539 1539 1540 1540 1540 1541
1537 1537 1537 1536 1536 1535 1535 1535 1535 1534 1534 1534 1534 1534 1534 1534 1534 1534 1534 1534 1534 1534 1535 1535 1536 1537 1537 1538 1539 1539 1539 1539 1540 1540 1540 1540 1540 1540 1540 1540 1540 1541 1541
1538 1538 1538 1538 1538 1538 1537 1537 1536 1536 1536 1536 1536 1536 1536 1536 1536 1536 1536 1536 1537 1537 1537 1538 1538 1539 1539 1540 1541 1541 1541 1541 1541 1541 1541 1542 1542 1542 1541 1541 1541 1541 1541
1539 1539 1539 1539 1539 1539 1539 1539 1538 1538 1538 1538 1538 1538 1538 1539 1539 1538 1538 1538 1539 1539 1539 1540 1540 1541 1541 1542 1542 1542 1542 1542 1542 1542 1543 1543 1542 1542 1542 1542 1541 1541 1541
1540 1541 1541 1540 1540 1540 1540 1540 1540 1540 1540 1540 1540 1540 1540 1540 1540 1540 1540 1540 1540 1541 1541 1541 1542 1542 1543 1543 1543 1543 1543 1543 1543 1543 1543 1543 1543 1543 1542 1542 1542 1542 1541
1541 1541 1541 1541 1541 1541 1541 1541 1541 1541 1541 1541 1541 1541 1542 1542 1542 1542 1542 1542 1543 1543 1543 1543 1543 1544 1544 1544 1545 1545 1545 1545 1545 1544 1544 1544 1544 1543 1543 1542 1542 1542 1542
1541 1542 1542 1542 1542 1542 1542 1542 1542 1543 1543 1543 1543 1543 1543 1543 1543 1543 1544 1544 1544 1545 1545 1545 1545 1545 1545 1546 1546 1546 1545 1546 1546 1545 1545 1545 1544 1544 1543 1543 1543 1542 1542
1542 1542 1543 1543 1543 1543 1543 1543 1543 1543 1544 1544 1544 1544 1544 1544 1544 1545 1545 1545 1545 1546 1546 1546 1546 1546 1547 1547 1547 1547 1547 1547 1547 1546 1546 1545 1545 1544 1544 1544 1543 1543 1542
1542 1542 1543 1544 1544 1544 1544 1544 1544 1545 1545 1545 1545 1545 1546 1546 1546 1546 1546 1546 1546 1547 1547 1547 1547 1548 1548 1548 1548 1548 1548 1548 1548 1547 1547 1546 1546 1545 1545 1544 1544 1544 1543
1542 1542 1543 1544 1544 1544 1545 1545 1545 1545 1546 1546 1546 1546 1547 1547 1547 1547 1547 1547 1547 1548 1548 1548 1548 1549 1549 1549 1550 1550 1550 1550 1549 1549 1548 1547 1547 1546 1546 1545 1545 1545 1544
1542 1543 1543 1544 1544 1544 1545 1545 1546 1546 1546 1546 1547 1547 1547 1547 1548 1548 1548 1548 1548 1548 1549 1549 1549 1550 1550 1550 1550 1551 1551 1551 1551 1550 1550 1549 1548 1547 1547 1546 1546 1546 1545
1542 1542 1543 1544 1544 1544 1545 1546 1546 1546 1547 1547 1547 1547 1547 1548 1548 1548 1548 1549 1549 1549 1550 1550 1550 1551 1551 1551 1551 1551 1552 1552 1552 1552 1551 1550 1550 1549 1548 1547 1547 1547 1546
1541 1542 1543 1543 1544 1544 1545 1545 1546 1546 1547 1547 1547 1548 1548 1548 1548 1548 1549 1549 1550 1550 1550 1551 1551 1551 1552 1552 1552 1552 1553 1553 1553 1553 1552 1552 1551 1550 1549 1549 1548 1548 1547
1541 1542 1542 1543 1544 1544 1544 1545 1546 1547 1547 1547 1547 1547 1548 1548 1548 1549 1549 1549 1550 1550 1551 1551 1552 1552 1553 1553 1553 1552 1553 1555 1554 1554 1554 1553 1552 1551 1551 1550 1550 1549 1548
1540 1541 1542 1543 1543 1544 1544 1545 1546 1546 1547 1547 1547 1547 1548 1548 1548 1548 1549 1549 1550 1550 1551 1551 1552 1552 1552 1553 1553 1554 1554 1554 1554 1555 1554 1554 1553 1552 1552 1552 1551 1550 1549
1539 1540 1541 1542 1543 1543 1544 1545 1545 1546 1547 1547 1547 1547 1547 1548 1548 1548 1549 1549 1550 1550 1551 1551 1552 1552 1553 1553 1553 1553 1554 1554 1554 1555 1555 1555 1554 1553 1553 1552 1552 1551 1550
1538 1539 1541 1542 1542 1543 1544 1544 1545 1546 1546 1547 1547 1547 1547 1548 1548 1548 1549 1549 1549 1550 1550 1551 1551 1552 1552 1552 1552 1553 1553 1553 1554 1554 1554 1555 1554 1553 1553 1552 1552 1551 1551
1537 1538 1540 1541 1542 1542 1543 1544 1545 1545 1546 1546 1547 1547 1547 1547 1548 1548 1548 1548 1549 1549 1550 1550 1551 1551 1551 1552 1552 1552 1553 1553 1553 1553 1553 1553 1554 1553 1553 1552 1552 1552 1551